| time (UTC) | temp F | wind direction | speed MPH | gust MPH | rain 1hr in | rain 24hr in | rain mn in | humidity % | barometer mb |
| 20260506232048 | 54 | 4 | 1.0 | 4.0 | 0.00 | 0.03 | 0.00 | 91 | 1014.7 |
| 20260506231558 | 54 | 205 | 1.0 | 2.0 | 0.00 | 0.03 | 0.00 | 91 | 1014.8 |
| 20260506231048 | 54 | 0 | 0.0 | 2.0 | 0.00 | 0.03 | 0.00 | 90 | 1014.7 |
| 20260506230550 | 54 | 0 | 0.0 | 2.0 | 0.00 | 0.03 | 0.00 | 90 | 1014.8 |
| 20260506230058 | 54 | 343 | 0.0 | 3.0 | 0.00 | 0.03 | 0.00 | 90 | 1014.6 |
| 20260506225550 | 54 | 0 | 1.0 | 3.0 | 0.00 | 0.03 | 0.00 | 90 | 1014.6 |
| 20260506225048 | 54 | 278 | 0.0 | 3.0 | 0.00 | 0.03 | 0.00 | 90 | 1014.7 |
| 20260506224552 | 54 | 29 | 1.0 | 4.0 | 0.00 | 0.03 | 0.00 | 90 | 1014.9 |
| 20260506224048 | 54 | 12 | 1.0 | 4.0 | 0.00 | 0.03 | 0.00 | 89 | 1015.0 |
| 20260506223551 | 54 | 34 | 1.0 | 4.0 | 0.00 | 0.03 | 0.00 | 89 | 1014.9 |
| 20260506223055 | 54 | 25 | 1.0 | 3.0 | 0.00 | 0.03 | 0.00 | 89 | 1015.1 |
| 20260506222549 | 54 | 41 | 0.0 | 3.0 | 0.00 | 0.03 | 0.00 | 89 | 1014.9 |
| 20260506222052 | 54 | 75 | 0.0 | 4.0 | 0.00 | 0.03 | 0.00 | 89 | 1014.9 |
| 20260506221602 | 54 | 74 | 1.0 | 6.0 | 0.00 | 0.03 | 0.00 | 88 | 1014.9 |
| 20260506221049 | 54 | 152 | 1.0 | 6.0 | 0.00 | 0.03 | 0.00 | 88 | 1014.8 |
| 20260506220549 | 55 | 270 | 3.0 | 5.0 | 0.00 | 0.03 | 0.00 | 87 | 1014.7 |
| 20260506220107 | 55 | 332 | 2.0 | 5.0 | 0.00 | 0.03 | 0.00 | 87 | 1014.9 |
| 20260506215548 | 55 | 36 | 1.0 | 5.0 | 0.00 | 0.03 | 0.03 | 86 | 1014.9 |
| 20260506215049 | 55 | 100 | 1.0 | 5.0 | 0.00 | 0.03 | 0.03 | 86 | 1014.9 |
| 20260506214557 | 55 | 78 | 0.0 | 4.0 | 0.00 | 0.03 | 0.03 | 86 | 1014.9 |
| 20260506214049 | 55 | 43 | 0.0 | 2.0 | 0.00 | 0.03 | 0.03 | 86 | 1014.8 |
| 20260506213550 | 55 | 162 | 0.0 | 2.0 | 0.00 | 0.03 | 0.03 | 86 | 1014.7 |
| 20260506213106 | 55 | 0 | 0.0 | 1.0 | 0.00 | 0.03 | 0.03 | 86 | 1014.9 |
| 20260506212549 | 55 | 0 | 0.0 | 3.0 | 0.00 | 0.03 | 0.03 | 86 | 1015.1 |
| 20260506212052 | 55 | 69 | 0.0 | 5.0 | 0.00 | 0.03 | 0.03 | 86 | 1015.1 |
| 20260506211557 | 55 | 61 | 0.0 | 5.0 | 0.00 | 0.03 | 0.03 | 86 | 1014.9 |
| 20260506211049 | 55 | 86 | 1.0 | 5.0 | 0.00 | 0.03 | 0.03 | 86 | 1014.9 |
| 20260506210551 | 55 | 69 | 1.0 | 3.0 | 0.00 | 0.03 | 0.03 | 86 | 1014.7 |
| 20260506210100 | 55 | 54 | 0.0 | 2.0 | 0.00 | 0.03 | 0.03 | 86 | 1014.6 |
| 20260506205549 | 55 | 0 | 0.0 | 2.0 | 0.00 | 0.03 | 0.03 | 86 | 1014.7 |
| 20260506205051 | 55 | 71 | 1.0 | 3.0 | 0.00 | 0.03 | 0.03 | 85 | 1014.6 |
| 20260506204555 | 55 | 0 | 0.0 | 4.0 | 0.00 | 0.03 | 0.03 | 85 | 1014.6 |
| 20260506204051 | 55 | 87 | 0.0 | 4.0 | 0.00 | 0.03 | 0.03 | 85 | 1014.4 |
| 20260506203549 | 55 | 29 | 2.0 | 4.0 | 0.00 | 0.03 | 0.03 | 85 | 1014.1 |
| 20260506203139 | 55 | 69 | 0.0 | 4.0 | 0.00 | 0.03 | 0.03 | 85 | 1014.1 |
| 20260506202552 | 55 | 69 | 1.0 | 4.0 | 0.00 | 0.03 | 0.03 | 84 | 1014.2 |
| 20260506202049 | 55 | 80 | 0.0 | 3.0 | 0.00 | 0.03 | 0.03 | 85 | 1014.3 |
| 20260506201653 | 55 | 0 | 0.0 | 3.0 | 0.00 | 0.03 | 0.03 | 84 | 1014.3 |
| 20260506200056 | 56 | 82 | 1.0 | 3.0 | 0.00 | 0.03 | 0.03 | 85 | 1013.8 |
| 20260506195548 | 55 | 36 | 1.0 | 3.0 | 0.00 | 0.03 | 0.03 | 85 | 1013.8 |
| 20260506195049 | 56 | 87 | 1.0 | 3.0 | 0.00 | 0.03 | 0.03 | 86 | 1013.9 |
| 20260506194555 | 56 | 61 | 0.0 | 3.0 | 0.00 | 0.03 | 0.03 | 86 | 1013.7 |
| 20260506194050 | 56 | 0 | 1.0 | 3.0 | 0.00 | 0.03 | 0.03 | 87 | 1013.7 |
| 20260506193552 | 56 | 69 | 1.0 | 3.0 | 0.00 | 0.03 | 0.03 | 87 | 1013.6 |
| 20260506193056 | 56 | 64 | 1.0 | 2.0 | 0.00 | 0.03 | 0.03 | 88 | 1013.4 |
| 20260506192549 | 56 | 127 | 0.0 | 2.0 | 0.00 | 0.03 | 0.03 | 88 | 1013.5 |
| 20260506192051 | 56 | 0 | 0.0 | 3.0 | 0.00 | 0.03 | 0.03 | 88 | 1013.4 |
| 20260506191559 | 56 | 103 | 1.0 | 3.0 | 0.00 | 0.03 | 0.03 | 88 | 1013.3 |
| 20260506191052 | 56 | 0 | 0.0 | 2.0 | 0.00 | 0.03 | 0.03 | 88 | 1013.4 |
| 20260506190549 | 56 | 317 | 0.0 | 4.0 | 0.00 | 0.03 | 0.03 | 88 | 1013.3 |
| 20260506190056 | 56 | 313 | 1.0 | 4.0 | 0.00 | 0.03 | 0.03 | 87 | 1013.4 |
| 20260506185552 | 56 | 0 | 0.0 | 6.0 | 0.00 | 0.03 | 0.03 | 88 | 1013.4 |
| 20260506185049 | 56 | 285 | 3.0 | 6.0 | 0.00 | 0.03 | 0.03 | 87 | 1013.4 |
| 20260506184601 | 56 | 299 | 2.0 | 4.0 | 0.00 | 0.03 | 0.03 | 87 | 1013.3 |
| 20260506184052 | 57 | 150 | 1.0 | 3.0 | 0.00 | 0.03 | 0.03 | 87 | 1013.3 |
| 20260506183549 | 57 | 244 | 0.0 | 3.0 | 0.00 | 0.03 | 0.03 | 87 | 1013.1 |
| 20260506183101 | 57 | 154 | 0.0 | 3.0 | 0.00 | 0.03 | 0.03 | 86 | 1013.0 |
| 20260506182548 | 57 | 81 | 0.0 | 3.0 | 0.00 | 0.03 | 0.03 | 86 | 1013.0 |
| 20260506182048 | 57 | 22 | 1.0 | 3.0 | 0.00 | 0.03 | 0.03 | 85 | 1013.1 |
| 20260506181600 | 57 | 38 | 2.0 | 4.0 | 0.00 | 0.03 | 0.03 | 85 | 1013.0 |
| 20260506181049 | 57 | 48 | 1.0 | 4.0 | 0.00 | 0.03 | 0.03 | 84 | 1013.1 |
| 20260506180552 | 57 | 0 | 0.0 | 5.0 | 0.00 | 0.03 | 0.03 | 84 | 1012.8 |
| 20260506180054 | 57 | 308 | 2.0 | 6.0 | 0.00 | 0.03 | 0.03 | 83 | 1013.0 |
| 20260506175548 | 57 | 314 | 3.0 | 8.0 | 0.00 | 0.03 | 0.03 | 83 | 1012.8 |
| 20260506175052 | 57 | 287 | 3.0 | 8.0 | 0.00 | 0.03 | 0.03 | 83 | 1012.8 |
| 20260506174605 | 57 | 293 | 4.0 | 8.0 | 0.00 | 0.03 | 0.03 | 83 | 1012.9 |
| 20260506174052 | 57 | 323 | 3.0 | 6.0 | 0.00 | 0.03 | 0.03 | 84 | 1013.0 |
| 20260506173549 | 57 | 309 | 2.0 | 9.0 | 0.00 | 0.03 | 0.03 | 83 | 1012.9 |
| 20260506173057 | 57 | 142 | 3.0 | 9.0 | 0.00 | 0.03 | 0.03 | 83 | 1012.9 |
| 20260506172551 | 57 | 304 | 4.0 | 9.0 | 0.01 | 0.03 | 0.03 | 82 | 1013.0 |
| 20260506172048 | 57 | 292 | 2.0 | 11.0 | 0.02 | 0.03 | 0.03 | 83 | 1012.9 |
| 20260506171611 | 57 | 327 | 2.0 | 11.0 | 0.03 | 0.03 | 0.03 | 86 | 1012.9 |
| 20260506171052 | 57 | 339 | 5.0 | 11.0 | 0.03 | 0.03 | 0.03 | 85 | 1013.1 |
| 20260506170553 | 57 | 288 | 5.0 | 15.0 | 0.03 | 0.03 | 0.03 | 85 | 1012.7 |
| 20260506170104 | 57 | 301 | 7.0 | 15.0 | 0.03 | 0.03 | 0.03 | 85 | 1012.9 |
| 20260506170037 | 57 | 289 | 8.0 | 15.0 | 0.03 | 0.03 | 0.03 | 86 | 1012.9 |
| 20260506165049 | 57 | 297 | 5.0 | 11.0 | 0.03 | 0.03 | 0.03 | 86 | 1012.9 |
| 20260506164559 | 57 | 62 | 4.0 | 11.0 | 0.03 | 0.03 | 0.03 | 86 | 1012.8 |
| 20260506164048 | 56 | 306 | 5.0 | 13.0 | 0.03 | 0.03 | 0.03 | 86 | 1012.8 |
| 20260506163548 | 56 | 313 | 7.0 | 13.0 | 0.02 | 0.02 | 0.02 | 86 | 1012.7 |
| 20260506163131 | 57 | 197 | 5.0 | 13.0 | 0.02 | 0.02 | 0.02 | 85 | 1013.0 |
| 20260506162548 | 57 | 285 | 6.0 | 14.0 | 0.01 | 0.01 | 0.01 | 84 | 1012.7 |
| 20260506162053 | 58 | 288 | 9.0 | 16.0 | 0.00 | 0.00 | 0.00 | 81 | 1012.7 |
| 20260506161552 | 58 | 306 | 9.0 | 16.0 | 0.00 | 0.00 | 0.00 | 80 | 1012.5 |
| 20260506161048 | 59 | 314 | 7.0 | 16.0 | 0.00 | 0.00 | 0.00 | 78 | 1012.6 |
| 20260506160548 | 60 | 302 | 7.0 | 14.0 | 0.00 | 0.00 | 0.00 | 76 | 1012.5 |
| 20260506160051 | 61 | 294 | 8.0 | 13.0 | 0.00 | 0.00 | 0.00 | 73 | 1012.4 |
| 20260506155849 | 61 | 296 | 8.0 | 13.0 | 0.00 | 0.00 | 0.00 | 70 | 1012.4 |
| 20260506155049 | 62 | 30 | 5.0 | 11.0 | 0.00 | 0.00 | 0.00 | 66 | 1012.4 |
| 20260506154558 | 63 | 200 | 3.0 | 10.0 | 0.00 | 0.00 | 0.00 | 64 | 1012.3 |
| 20260506154053 | 64 | 285 | 4.0 | 13.0 | 0.00 | 0.00 | 0.00 | 63 | 1012.5 |
| 20260506153549 | 64 | 15 | 8.0 | 13.0 | 0.00 | 0.00 | 0.00 | 60 | 1012.4 |
| 20260506153121 | 65 | 11 | 6.0 | 12.0 | 0.00 | 0.00 | 0.00 | 59 | 1012.3 |
| 20260506152555 | 66 | 321 | 7.0 | 12.0 | 0.00 | 0.00 | 0.00 | 57 | 1012.2 |
| 20260506152049 | 67 | 349 | 7.0 | 12.0 | 0.00 | 0.00 | 0.00 | 56 | 1012.2 |
| 20260506151555 | 69 | 8 | 3.0 | 11.0 | 0.00 | 0.00 | 0.00 | 55 | 1012.2 |
| 20260506151048 | 68 | 114 | 4.0 | 11.0 | 0.00 | 0.00 | 0.00 | 55 | 1012.2 |
| 20260506150548 | 68 | 98 | 3.0 | 8.0 | 0.00 | 0.00 | 0.00 | 54 | 1012.2 |
| 20260506150055 | 68 | 74 | 3.0 | 8.0 | 0.00 | 0.00 | 0.00 | 53 | 1012.2 |
| 20260506145551 | 68 | 56 | 2.0 | 7.0 | 0.00 | 0.00 | 0.00 | 56 | 1012.2 |
| 20260506145050 | 68 | 47 | 3.0 | 7.0 | 0.00 | 0.00 | 0.00 | 55 | 1012.1 |
| 20260506144555 | 67 | 60 | 1.0 | 9.0 | 0.00 | 0.00 | 0.00 | 57 | 1012.0 |
| 20260506144049 | 67 | 93 | 3.0 | 9.0 | 0.00 | 0.00 | 0.00 | 56 | 1012.3 |
| 20260506143550 | 67 | 131 | 3.0 | 10.0 | 0.00 | 0.00 | 0.00 | 58 | 1012.6 |
| 20260506143053 | 67 | 20 | 5.0 | 10.0 | 0.00 | 0.00 | 0.00 | 59 | 1012.4 |
| 20260506142549 | 66 | 57 | 6.0 | 10.0 | 0.00 | 0.00 | 0.00 | 61 | 1012.4 |
| 20260506142048 | 66 | 88 | 4.0 | 9.0 | 0.00 | 0.00 | 0.00 | 62 | 1012.6 |
| 20260506141554 | 66 | 17 | 4.0 | 9.0 | 0.00 | 0.00 | 0.00 | 61 | 1012.8 |
| 20260506141049 | 66 | 350 | 2.0 | 7.0 | 0.00 | 0.00 | 0.00 | 59 | 1012.9 |
| 20260506140551 | 67 | 19 | 2.0 | 5.0 | 0.00 | 0.00 | 0.00 | 57 | 1012.9 |
| 20260506140053 | 67 | 30 | 1.0 | 10.0 | 0.00 | 0.00 | 0.00 | 56 | 1012.6 |
| 20260506135548 | 67 | 41 | 3.0 | 10.0 | 0.00 | 0.00 | 0.00 | 53 | 1012.7 |
| 20260506135048 | 68 | 9 | 3.0 | 10.0 | 0.00 | 0.00 | 0.00 | 54 | 1012.6 |
| 20260506134600 | 67 | 336 | 1.0 | 7.0 | 0.00 | 0.00 | 0.00 | 53 | 1012.8 |
| 20260506134048 | 66 | 11 | 1.0 | 7.0 | 0.00 | 0.00 | 0.00 | 53 | 1012.7 |
| 20260506133547 | 66 | 34 | 3.0 | 7.0 | 0.00 | 0.00 | 0.00 | 55 | 1012.9 |
| 20260506133056 | 66 | 64 | 4.0 | 7.0 | 0.00 | 0.00 | 0.00 | 55 | 1013.0 |
| 20260506132550 | 66 | 36 | 4.0 | 7.0 | 0.00 | 0.00 | 0.00 | 56 | 1013.1 |
| 20260506132049 | 66 | 19 | 3.0 | 7.0 | 0.00 | 0.00 | 0.00 | 55 | 1013.1 |
| 20260506131601 | 66 | 351 | 2.0 | 7.0 | 0.00 | 0.00 | 0.00 | 53 | 1013.1 |
| 20260506131049 | 66 | 48 | 3.0 | 7.0 | 0.00 | 0.00 | 0.00 | 53 | 1013.2 |
| 20260506130550 | 66 | 81 | 3.0 | 6.0 | 0.00 | 0.00 | 0.00 | 54 | 1013.1 |
| 20260506130548 | 67 | 29 | 3.0 | 5.0 | 0.00 | 0.00 | 0.00 | 53 | 1013.0 |
| 20260506125151 | 68 | 29 | 2.0 | 5.0 | 0.00 | 0.00 | 0.00 | 52 | 1013.3 |
| 20260506122549 | 68 | 121 | 0.0 | 4.0 | 0.00 | 0.00 | 0.00 | 50 | 1013.4 |
| 20260506122049 | 68 | 201 | 1.0 | 3.0 | 0.00 | 0.00 | 0.00 | 48 | 1013.4 |
| 20260506121608 | 68 | 156 | 0.0 | 5.0 | 0.00 | 0.00 | 0.00 | 48 | 1013.4 |
| 20260506121048 | 67 | 53 | 0.0 | 5.0 | 0.00 | 0.00 | 0.00 | 47 | 1013.6 |
| 20260506120550 | 67 | 84 | 1.0 | 5.0 | 0.00 | 0.00 | 0.00 | 49 | 1013.6 |
| 20260506120059 | 66 | 112 | 1.0 | 4.0 | 0.00 | 0.00 | 0.00 | 53 | 1013.7 |
| 20260506115549 | 65 | 35 | 0.0 | 5.0 | 0.00 | 0.00 | 0.00 | 55 | 1013.8 |
| 20260506115049 | 65 | 260 | 0.0 | 5.0 | 0.00 | 0.00 | 0.00 | 54 | 1013.8 |
| 20260506114557 | 66 | 329 | 2.0 | 6.0 | 0.00 | 0.00 | 0.00 | 55 | 1014.0 |
| 20260506114048 | 66 | 34 | 3.0 | 6.0 | 0.00 | 0.00 | 0.00 | 55 | 1014.0 |
| 20260506113548 | 66 | 56 | 0.0 | 5.0 | 0.00 | 0.00 | 0.00 | 55 | 1013.9 |
| 20260506113053 | 66 | 188 | 1.0 | 9.0 | 0.00 | 0.00 | 0.00 | 56 | 1014.1 |
| 20260506112548 | 66 | 0 | 1.0 | 9.0 | 0.00 | 0.00 | 0.00 | 58 | 1014.0 |
| 20260506112048 | 66 | 53 | 4.0 | 9.0 | 0.00 | 0.00 | 0.00 | 55 | 1014.1 |
| 20260506111548 | 66 | 301 | 0.0 | 5.0 | 0.00 | 0.00 | 0.00 | 55 | 1014.2 |
| 20260506111053 | 65 | 303 | 2.0 | 7.0 | 0.00 | 0.00 | 0.00 | 54 | 1014.0 |
| 20260506110548 | 65 | 351 | 3.0 | 17.0 | 0.00 | 0.00 | 0.00 | 58 | 1014.2 |
| 20260506105549 | 65 | 353 | 3.0 | 17.0 | 0.00 | 0.00 | 0.00 | 63 | 1014.3 |
| 20260506105049 | 65 | 251 | 2.0 | 7.0 | 0.00 | 0.00 | 0.00 | 63 | 1014.5 |
| 20260506104557 | 64 | 358 | 3.0 | 7.0 | 0.00 | 0.00 | 0.00 | 62 | 1014.4 |
| 20260506104048 | 63 | 171 | 3.0 | 12.0 | 0.00 | 0.00 | 0.00 | 63 | 1014.4 |
| 20260506103549 | 63 | 237 | 2.0 | 12.0 | 0.00 | 0.00 | 0.00 | 67 | 1014.3 |
| 20260506103056 | 62 | 308 | 3.0 | 8.0 | 0.00 | 0.00 | 0.00 | 67 | 1014.4 |
| 20260506102549 | 62 | 297 | 2.0 | 8.0 | 0.00 | 0.00 | 0.00 | 66 | 1014.5 |
| 20260506102049 | 62 | 287 | 3.0 | 8.0 | 0.00 | 0.00 | 0.00 | 66 | 1014.6 |
| 20260506101609 | 62 | 346 | 4.0 | 9.0 | 0.00 | 0.00 | 0.00 | 66 | 1014.5 |
| 20260506101049 | 62 | 315 | 3.0 | 9.0 | 0.00 | 0.00 | 0.00 | 65 | 1014.6 |
| 20260506100549 | 62 | 303 | 3.0 | 9.0 | 0.00 | 0.00 | 0.00 | 65 | 1014.5 |
| 20260506100050 | 62 | 285 | 2.0 | 9.0 | 0.00 | 0.00 | 0.00 | 66 | 1014.6 |
| 20260506095548 | 61 | 164 | 3.0 | 10.0 | 0.00 | 0.00 | 0.00 | 68 | 1014.6 |
| 20260506095049 | 61 | 296 | 3.0 | 10.0 | 0.00 | 0.00 | 0.00 | 69 | 1014.7 |
| 20260506094557 | 61 | 54 | 5.0 | 10.0 | 0.00 | 0.00 | 0.00 | 70 | 1014.6 |
| 20260506094048 | 61 | 101 | 4.0 | 11.0 | 0.00 | 0.00 | 0.00 | 69 | 1014.7 |
| 20260506093552 | 61 | 161 | 4.0 | 11.0 | 0.00 | 0.00 | 0.00 | 73 | 1014.6 |
| 20260506093058 | 61 | 300 | 4.0 | 8.0 | 0.00 | 0.00 | 0.00 | 71 | 1014.5 |
| 20260506092549 | 61 | 296 | 3.0 | 7.0 | 0.00 | 0.00 | 0.00 | 70 | 1014.5 |
| 20260506092050 | 61 | 19 | 2.0 | 8.0 | 0.00 | 0.00 | 0.00 | 71 | 1014.4 |
| 20260506091552 | 61 | 61 | 3.0 | 8.0 | 0.00 | 0.00 | 0.00 | 72 | 1014.5 |
| 20260506091053 | 60 | 355 | 3.0 | 9.0 | 0.00 | 0.00 | 0.00 | 73 | 1014.3 |
| 20260506090548 | 60 | 306 | 3.0 | 9.0 | 0.00 | 0.00 | 0.00 | 72 | 1014.4 |
| 20260506085548 | 59 | 239 | 3.0 | 8.0 | 0.00 | 0.00 | 0.00 | 75 | 1014.3 |
| 20260506085049 | 59 | 301 | 2.0 | 7.0 | 0.00 | 0.00 | 0.00 | 75 | 1014.3 |
| 20260506084557 | 59 | 45 | 2.0 | 8.0 | 0.00 | 0.00 | 0.00 | 77 | 1014.3 |
| 20260506084049 | 58 | 10 | 3.0 | 8.0 | 0.00 | 0.00 | 0.00 | 77 | 1014.2 |
| 20260506083548 | 58 | 33 | 3.0 | 7.0 | 0.00 | 0.00 | 0.00 | 77 | 1014.3 |
| 20260506083053 | 58 | 158 | 2.0 | 8.0 | 0.00 | 0.00 | 0.00 | 78 | 1014.3 |
| 20260506082548 | 58 | 55 | 2.0 | 8.0 | 0.00 | 0.00 | 0.00 | 79 | 1014.3 |
| 20260506082047 | 57 | 109 | 2.0 | 7.0 | 0.00 | 0.00 | 0.00 | 79 | 1014.4 |
| 20260506081603 | 57 | 17 | 2.0 | 9.0 | 0.00 | 0.00 | 0.00 | 81 | 1014.3 |
| 20260506081054 | 57 | 315 | 3.0 | 9.0 | 0.00 | 0.00 | 0.00 | 81 | 1014.3 |
| 20260506080549 | 57 | 35 | 1.0 | 8.0 | 0.00 | 0.00 | 0.00 | 82 | 1014.3 |
| 20260506073054 | 56 | 8 | 1.0 | 8.0 | 0.00 | 0.00 | 0.00 | 84 | 1014.2 |
| 20260506072548 | 56 | 168 | 2.0 | 8.0 | 0.00 | 0.00 | 0.00 | 85 | 1014.3 |
| 20260506072050 | 55 | 37 | 1.0 | 7.0 | 0.00 | 0.00 | 0.00 | 85 | 1014.1 |
| 20260506071552 | 55 | 11 | 1.0 | 5.0 | 0.00 | 0.00 | 0.00 | 86 | 1014.1 |
| 20260506071048 | 55 | 318 | 3.0 | 5.0 | 0.00 | 0.00 | 0.00 | 85 | 1014.1 |
| 20260506070549 | 55 | 62 | 1.0 | 7.0 | 0.00 | 0.00 | 0.00 | 87 | 1014.1 |
| 20260506062050 | 51 | 0 | 0.0 | 0.0 | 0.00 | 0.00 | 0.00 | 92 | 1014.3 |
| 20260506061744 | 50 | 0 | 0.0 | 0.0 | 0.00 | 0.00 | 0.00 | 91 | 1014.2 |
| 20260506061048 | 50 | 0 | 0.0 | 1.0 | 0.00 | 0.00 | 0.00 | 92 | 1014.2 |
| 20260506060549 | 50 | 0 | 0.0 | 1.0 | 0.00 | 0.00 | 0.00 | 91 | 1014.3 |
| 20260506051051 | 50 | 195 | 3.0 | 6.0 | 0.00 | 0.00 | 0.00 | 90 | 1013.8 |
| 20260506050549 | 50 | 182 | 2.0 | 4.0 | 0.00 | 0.00 | 0.00 | 91 | 1013.6 |
| 20260506050115 | 50 | 172 | 0.0 | 3.0 | 0.00 | 0.00 | 0.00 | 90 | 1013.8 |
| 20260506043054 | 50 | 195 | 2.0 | 5.0 | 0.00 | 0.00 | 0.00 | 92 | 1013.8 |
| 20260506042549 | 50 | 157 | 2.0 | 5.0 | 0.00 | 0.00 | 0.00 | 92 | 1013.6 |
| 20260506042050 | 50 | 178 | 1.0 | 5.0 | 0.00 | 0.00 | 0.00 | 92 | 1013.8 |
| 20260506041603 | 49 | 228 | 1.0 | 4.0 | 0.00 | 0.00 | 0.00 | 92 | 1013.6 |
| 20260506041048 | 49 | 169 | 0.0 | 4.0 | 0.00 | 0.00 | 0.00 | 93 | 1013.7 |
| 20260506040549 | 49 | 209 | 0.0 | 5.0 | 0.00 | 0.00 | 0.00 | 93 | 1013.8 |
| 20260506040057 | 49 | 209 | 1.0 | 5.0 | 0.00 | 0.00 | 0.00 | 93 | 1013.7 |
| 20260506035547 | 49 | 183 | 1.0 | 4.0 | 0.00 | 0.00 | 0.00 | 94 | 1013.7 |
| 20260506035049 | 48 | 199 | 1.0 | 3.0 | 0.00 | 0.00 | 0.00 | 94 | 1013.7 |
| 20260506034555 | 48 | 183 | 1.0 | 2.0 | 0.00 | 0.00 | 0.00 | 93 | 1013.7 |
| 20260506034049 | 47 | 183 | 0.0 | 2.0 | 0.00 | 0.00 | 0.00 | 93 | 1013.7 |
| 20260506033611 | 47 | 0 | 0.0 | 2.0 | 0.00 | 0.00 | 0.00 | 93 | 1013.7 |
| 20260506033050 | 47 | 0 | 0.0 | 1.0 | 0.00 | 0.00 | 0.00 | 93 | 1013.7 |
| 20260506032548 | 46 | 0 | 0.0 | 0.0 | 0.00 | 0.00 | 0.00 | 92 | 1013.8 |
| 20260506032049 | 47 | 0 | 0.0 | 0.0 | 0.00 | 0.00 | 0.00 | 92 | 1013.7 |
| 20260506031552 | 47 | 0 | 0.0 | 0.0 | 0.00 | 0.00 | 0.00 | 93 | 1013.8 |
| 20260506031048 | 46 | 0 | 0.0 | 0.0 | 0.00 | 0.00 | 0.00 | 92 | 1013.9 |
| 20260506030546 | 47 | 0 | 0.0 | 1.0 | 0.00 | 0.00 | 0.00 | 92 | 1013.8 |
| 20260506030051 | 47 | 0 | 0.0 | 1.0 | 0.00 | 0.00 | 0.00 | 92 | 1013.8 |
| 20260506025550 | 47 | 0 | 0.0 | 1.0 | 0.00 | 0.00 | 0.00 | 92 | 1013.9 |
| 20260506025307 | 47 | 0 | 0.0 | 0.0 | 0.00 | 0.00 | 0.00 | 91 | 1013.9 |
| 20260506023109 | 48 | 0 | 0.0 | 0.0 | 0.00 | 0.00 | 0.00 | 91 | 1013.6 |
| 20260506022549 | 48 | 0 | 0.0 | 0.0 | 0.00 | 0.00 | 0.00 | 90 | 1013.8 |
| 20260506022053 | 49 | 0 | 0.0 | 0.0 | 0.00 | 0.00 | 0.00 | 90 | 1013.8 |
| 20260506021552 | 49 | 0 | 0.0 | 1.0 | 0.00 | 0.00 | 0.00 | 91 | 1013.9 |
| 20260506021049 | 49 | 0 | 0.0 | 1.0 | 0.00 | 0.00 | 0.00 | 90 | 1013.6 |
| 20260506020701 | 50 | 0 | 0.0 | 0.0 | 0.00 | 0.00 | 0.00 | 90 | 1013.8 |
| 20260506015553 | 51 | 0 | 0.0 | 3.0 | 0.00 | 0.00 | 0.00 | 90 | 1013.9 |
| 20260506015051 | 51 | 0 | 0.0 | 3.0 | 0.00 | 0.00 | 0.00 | 91 | 1013.8 |
| 20260506014559 | 51 | 219 | 1.0 | 3.0 | 0.00 | 0.00 | 0.00 | 91 | 1013.8 |
| 20260506014051 | 50 | 0 | 0.0 | 0.0 | 0.00 | 0.00 | 0.00 | 90 | 1014.0 |
| 20260506013551 | 50 | 0 | 0.0 | 1.0 | 0.00 | 0.00 | 0.00 | 89 | 1014.0 |
| 20260506013056 | 51 | 0 | 0.0 | 1.0 | 0.00 | 0.00 | 0.00 | 88 | 1014.0 |
| 20260506012551 | 51 | 184 | 0.0 | 1.0 | 0.00 | 0.00 | 0.00 | 88 | 1014.0 |
| 20260506012051 | 51 | 183 | 0.0 | 1.0 | 0.00 | 0.00 | 0.00 | 87 | 1014.1 |
| 20260506011604 | 51 | 0 | 0.0 | 3.0 | 0.00 | 0.00 | 0.00 | 86 | 1014.1 |
| 20260506011051 | 51 | 212 | 0.0 | 4.0 | 0.00 | 0.00 | 0.00 | 86 | 1013.9 |
| 20260506010551 | 51 | 212 | 1.0 | 4.0 | 0.00 | 0.00 | 0.00 | 86 | 1014.0 |
| 20260506010055 | 51 | 212 | 2.0 | 4.0 | 0.00 | 0.00 | 0.00 | 85 | 1014.1 |
| 20260506005553 | 51 | 224 | 1.0 | 3.0 | 0.00 | 0.00 | 0.00 | 84 | 1014.1 |
| 20260506005055 | 51 | 287 | 0.0 | 3.0 | 0.00 | 0.00 | 0.00 | 86 | 1014.1 |
| 20260506004600 | 52 | 291 | 1.0 | 3.0 | 0.00 | 0.00 | 0.00 | 88 | 1014.1 |
| 20260506004052 | 52 | 306 | 0.0 | 2.0 | 0.00 | 0.00 | 0.00 | 89 | 1014.2 |
| 20260506003548 | 52 | 0 | 0.0 | 7.0 | 0.00 | 0.00 | 0.00 | 87 | 1014.2 |
| 20260506003059 | 52 | 305 | 1.0 | 7.0 | 0.00 | 0.00 | 0.00 | 87 | 1014.3 |
| 20260506002551 | 52 | 268 | 4.0 | 7.0 | 0.00 | 0.00 | 0.00 | 89 | 1014.2 |
| 20260506002051 | 51 | 298 | 2.0 | 4.0 | 0.00 | 0.00 | 0.00 | 83 | 1014.3 |
| 20260506001558 | 51 | 209 | 0.0 | 4.0 | 0.00 | 0.00 | 0.00 | 85 | 1014.4 |
| 20260506001049 | 52 | 209 | 1.0 | 6.0 | 0.00 | 0.00 | 0.00 | 87 | 1014.6 |
| 20260506000549 | 53 | 286 | 2.0 | 6.0 | 0.00 | 0.00 | 0.00 | 89 | 1014.6 |
| 20260506000105 | 53 | 0 | 0.0 | 6.0 | 0.00 | 0.00 | 0.00 | 89 | 1014.6 |
| 20260505235551 | 53 | 300 | 3.0 | 6.0 | 0.00 | 0.00 | 0.00 | 89 | 1014.5 |
| 20260505235049 | 53 | 299 | 1.0 | 4.0 | 0.00 | 0.00 | 0.00 | 88 | 1014.6 |
| 20260505234555 | 53 | 299 | 0.0 | 4.0 | 0.00 | 0.00 | 0.00 | 88 | 1014.5 |
| 20260505234049 | 53 | 298 | 1.0 | 5.0 | 0.00 | 0.00 | 0.00 | 88 | 1014.5 |